Location: Poughquag
(41.6090°N, 73.6820°W)
Time: 12:49:20
(UTC-04:00)

Transit 4A - Pass Details

Date: 04 June 2020
Orbit: 866 x 978 km, 66.8° (Epoch: 06 July)

Event Time Altitude Azimuth Distance (km) Brightness Sun altitude
Rises 03:56:49 0° 279° (W) 3,465 10.6 -13.1°
Reaches altitude 10° 04:01:39 10° 315° (NW) 2,551 10.2 -12.5°
Maximum altitude 04:03:11 11° 330° (NNW) 2,490 10.3 -12.3°
Drops below altitude 10° 04:04:45 10° 345° (NNW) 2,570 10.6 -12.1°
Sets 04:09:42 0° 21° (NNE) 3,546 12.3 -11.4°
